Date String (YYYY-MM-DD hh:mm:ss) UTC,Instrument flags,Ambient pressure (hPa),Sample flow (lpm),Bypass flow (lpm),Sample temperature (°C),Ambient temperature (°C),ASC tube jacket temperature (°C),LED temperature (°C),Box temperature (°C),Sample RH (%),Span deviation,Mass concentration (μg/m³),Mass concentration (μg/m³),Mass concentration (μg/m³)
DateTimeUTC,F1_M11,P_M11,Q1_M11,Q2_M11,T1_M11,T2_M11,T3_M11,T4_M11,T5_M11,U1_M11,ZSPAN_M11,X0_M11,X2_M11,X1_M11
2022-06-04 20:00:00,,0820.4,5.00,0.00,29.2,27.3,00.0,37.9,30.9,17.3,0000.0,0012.20,0003.68,0002.69
2022-06-04 20:01:00,,0820.4,5.01,0.00,29.1,27.0,00.0,37.9,30.9,18.8,0000.0,0011.89,0003.64,0002.68
2022-06-04 20:02:00,,0820.5,5.01,0.00,29.1,27.0,00.0,37.9,30.8,16.2,0000.0,0011.86,0003.63,0002.71
2022-06-04 20:03:00,,0820.3,4.99,0.00,29.1,27.1,00.0,37.9,30.9,16.2,0000.0,0011.76,0003.67,0002.72
2022-06-04 20:04:00,,0820.4,4.99,0.00,29.0,27.3,00.0,37.9,30.9,17.2,0000.0,0011.54,0003.69,0002.73
2022-06-04 20:05:00,,0820.3,5.01,0.00,29.1,27.5,00.0,37.9,31.0,16.7,0000.0,0010.73,0003.69,0002.73
2022-06-04 20:06:00,,0820.3,5.01,0.00,29.1,27.7,00.0,37.9,31.0,16.2,0000.0,0010.48,0003.71,0002.75
2022-06-04 20:07:00,,0820.3,5.01,0.00,29.1,27.8,00.0,37.9,31.1,16.5,0000.0,0010.72,0003.72,0002.77
2022-06-04 20:08:00,,0820.3,5.00,0.00,29.1,28.0,00.0,37.9,31.1,17.7,0000.0,0010.67,0003.75,0002.79
2022-06-04 20:09:00,,0820.3,4.99,0.00,29.2,28.1,00.0,37.9,31.2,17.0,0000.0,0010.70,0003.80,0002.78
2022-06-04 20:10:00,,0820.3,4.99,0.00,29.2,28.3,00.0,38.0,31.2,17.3,0000.0,0011.90,0003.85,0002.78
2022-06-04 20:11:00,,0820.3,4.99,0.00,29.3,28.4,00.0,38.0,31.3,17.1,0000.0,0011.73,0003.83,0002.80
2022-06-04 20:12:00,,0820.3,5.01,0.00,29.3,28.5,00.0,38.0,31.3,16.1,0000.0,0011.74,0003.84,0002.81
2022-06-04 20:13:00,,0820.2,4.99,0.00,29.3,27.8,00.0,38.0,31.1,15.7,0000.0,0012.23,0003.80,0002.82
2022-06-04 20:14:00,,0820.2,4.99,0.00,29.2,27.0,00.0,37.9,30.9,16.5,0000.0,0012.26,0003.80,0002.82
2022-06-04 20:15:00,,0820.2,5.01,0.00,29.1,26.9,00.0,37.9,30.8,16.7,0000.0,0012.62,0003.80,0002.83
2022-06-04 20:16:00,,0820.3,5.00,0.00,29.1,26.9,00.0,37.9,30.8,18.7,0000.0,0012.87,0003.81,0002.84
2022-06-04 20:17:00,,0820.2,4.98,0.00,29.0,27.1,00.0,37.9,30.9,17.2,0000.0,0011.93,0003.77,0002.81
2022-06-04 20:18:00,,0820.2,5.00,0.00,29.0,27.3,00.0,37.9,30.9,17.6,0000.0,0011.47,0003.76,0002.79
2022-06-04 20:19:00,,0820.2,5.01,0.00,29.0,27.5,00.0,37.9,30.9,16.3,0000.0,0012.43,0003.76,0002.78
2022-06-04 20:20:00,,0820.2,5.01,0.00,29.1,27.6,00.0,37.9,31.0,16.1,0000.0,0012.45,0003.74,0002.78
2022-06-04 20:21:00,,0820.2,4.99,0.00,29.1,27.8,00.0,37.9,31.1,16.1,0000.0,0011.60,0003.73,0002.78
2022-06-04 20:22:00,,0820.2,4.98,0.00,29.1,28.0,00.0,37.9,31.1,16.5,0000.0,0010.67,0003.73,0002.77
2022-06-04 20:23:00,,0820.2,5.00,0.00,29.2,28.2,00.0,37.9,31.2,15.8,0000.0,0010.51,0003.75,0002.77
2022-06-04 20:24:00,,0820.2,5.01,0.00,29.2,28.3,00.0,38.0,31.2,16.3,0000.0,0010.53,0003.77,0002.75
2022-06-04 20:25:00,,0820.2,5.00,0.00,29.3,28.4,00.0,38.0,31.3,17.5,0000.0,0010.58,0003.79,0002.75
2022-06-04 20:26:00,,0820.2,5.00,0.00,29.3,28.4,00.0,38.0,31.3,16.5,0000.0,0010.26,0003.75,0002.74
2022-06-04 20:27:00,,0820.2,4.99,0.00,29.3,27.7,00.0,37.9,31.1,17.3,0000.0,0010.37,0003.76,0002.72
2022-06-04 20:28:00,,0820.2,5.01,0.00,29.2,27.0,00.0,37.9,30.9,17.3,0000.0,0011.24,0003.77,0002.73
2022-06-04 20:29:00,,0820.2,5.01,0.00,29.1,26.9,00.0,37.9,30.8,17.2,0000.0,0011.04,0003.71,0002.72
2022-06-04 20:30:00,,0820.2,5.00,0.00,29.1,26.9,00.0,37.9,30.8,16.8,0000.0,0010.87,0003.70,0002.72
2022-06-04 20:31:00,,0820.2,5.01,0.00,29.0,27.1,00.0,37.9,30.9,16.1,0000.0,0011.29,0003.71,0002.74
2022-06-04 20:32:00,,0820.2,5.00,0.00,29.0,27.3,00.0,37.9,30.9,16.5,0000.0,0012.07,0003.75,0002.75
2022-06-04 20:33:00,,0820.3,4.99,0.00,29.0,27.5,00.0,37.9,30.9,16.9,0000.0,0012.99,0003.78,0002.76
2022-06-04 20:34:00,,0820.2,5.00,0.00,29.1,27.7,00.0,37.9,31.0,16.2,0000.0,0013.31,0003.78,0002.77
2022-06-04 20:35:00,,0820.2,5.01,0.00,29.1,27.8,00.0,37.9,31.0,15.9,0000.0,0013.27,0003.80,0002.79
2022-06-04 20:36:00,,0820.2,4.99,0.00,29.1,28.0,00.0,37.9,31.1,15.5,0000.0,0013.34,0003.79,0002.82
2022-06-04 20:37:00,,0820.2,4.99,0.00,29.2,28.1,00.0,37.9,31.2,15.3,0000.0,0014.32,0003.82,0002.84
2022-06-04 20:38:00,,0820.3,5.00,0.00,29.2,28.3,00.0,37.9,31.2,15.6,0000.0,0014.57,0003.78,0002.86
2022-06-04 20:39:00,,0820.2,5.00,0.00,29.2,28.4,00.0,38.0,31.3,16.1,0000.0,0014.03,0003.80,0002.88
2022-06-04 20:40:00,,0820.2,4.99,0.00,29.3,28.5,00.0,38.0,31.3,16.7,0000.0,0015.08,0003.89,0002.93
2022-06-04 20:41:00,,0820.2,4.99,0.00,29.3,28.1,00.0,38.0,31.2,16.4,0000.0,0015.09,0003.93,0002.93
2022-06-04 20:42:00,,0820.2,5.01,0.00,29.2,27.1,00.0,37.9,31.0,15.6,0000.0,0014.96,0003.89,0002.91
2022-06-04 20:43:00,,0820.2,5.00,0.00,29.1,26.8,00.0,37.9,30.8,15.2,0000.0,0014.77,0003.84,0002.89
2022-06-04 20:44:00,,0820.2,4.99,0.00,29.1,26.8,00.0,37.9,30.8,15.3,0000.0,0014.88,0003.81,0002.87
2022-06-04 20:45:00,,0820.2,5.01,0.00,29.0,27.0,00.0,37.9,30.8,15.9,0000.0,0014.90,0003.80,0002.88
2022-06-04 20:46:00,,0820.2,5.00,0.00,29.0,27.1,00.0,37.9,30.9,17.0,0000.0,0014.69,0003.79,0002.88
2022-06-04 20:47:00,,0820.2,5.00,0.00,29.0,27.3,00.0,37.9,30.9,17.6,0000.0,0015.82,0003.80,0002.86
2022-06-04 20:48:00,,0820.2,5.00,0.00,29.0,27.5,00.0,37.9,31.0,16.5,0000.0,0015.81,0003.81,0002.84
2022-06-04 20:49:00,,0820.2,5.00,0.00,29.1,27.7,00.0,37.9,31.0,15.7,0000.0,0015.15,0003.80,0002.83
2022-06-04 20:50:00,,0820.2,5.01,0.00,29.1,27.9,00.0,37.9,31.1,16.6,0000.0,0015.03,0003.80,0002.80
2022-06-04 20:51:00,,0820.2,5.00,0.00,29.1,28.0,00.0,37.9,31.1,16.8,0000.0,0014.88,0003.76,0002.76
2022-06-04 20:52:00,,0820.3,4.99,0.00,29.2,28.2,00.0,37.9,31.2,16.2,0000.0,0014.16,0003.75,0002.76
2022-06-04 20:53:00,,0820.2,5.00,0.00,29.2,28.3,00.0,37.9,31.2,16.4,0000.0,0013.57,0003.78,0002.76
2022-06-04 20:54:00,,0820.2,5.01,0.00,29.2,28.4,00.0,38.0,31.3,15.6,0000.0,0012.94,0003.79,0002.78
2022-06-04 20:55:00,,0820.2,5.00,0.00,29.3,28.5,00.0,38.0,31.3,15.6,0000.0,0011.92,0003.80,0002.78
2022-06-04 20:56:00,,0820.2,5.00,0.00,29.3,28.0,00.0,38.0,31.2,17.7,0000.0,0011.60,0003.78,0002.76
2022-06-04 20:57:00,,0820.1,5.00,0.00,29.2,27.1,00.0,37.9,31.0,16.8,0000.0,0011.71,0003.79,0002.76
2022-06-04 20:58:00,,0820.1,4.99,0.00,29.1,26.8,00.0,37.9,30.9,15.1,0000.0,0012.48,0003.87,0002.78
2022-06-04 20:59:00,,0820.1,5.00,0.00,29.1,26.9,00.0,37.9,30.8,17.2,0000.0,0012.22,0003.84,0002.80
